Time,TemperatureF,DewpointF,PressureIn,WindDirection,WindDirectionDegrees,WindSpeedMPH,WindSpeedGustMPH,Humidity,HourlyPrecipIn,Conditions,Clouds,dailyrainin,SoftwareType,DateUTC
2013-06-20 00:01:00,58.0,53.6,30.16,NNW,332,0.0,0.0,85,0.00,,OVC OVC///CB,0.00,WUHU216DAVISVP2,2013-06-20 04:01:00,
2013-06-20 00:06:00,57.8,53.4,30.16,NNW,332,0.0,0.0,85,0.00,,OVC OVC///CB,0.00,WUHU216DAVISVP2,2013-06-20 04:06:00,
2013-06-20 00:11:00,57.4,53.4,30.16,NNW,332,0.0,0.0,86,0.00,,OVC OVC///CB,0.00,WUHU216DAVISVP2,2013-06-20 04:11:00,
2013-06-20 00:16:00,57.0,53.3,30.15,NNW,332,0.0,0.0,87,0.00,,OVC OVC///CB,0.00,WUHU216DAVISVP2,2013-06-20 04:16:00,
2013-06-20 00:21:00,56.9,53.5,30.15,NNW,332,0.0,0.0,88,0.00,,OVC OVC///CB,0.00,WUHU216DAVISVP2,2013-06-20 04:21:00,
2013-06-20 00:26:00,57.0,53.3,30.15,NNW,332,0.0,0.0,87,0.00,,OVC OVC///CB,0.00,WUHU216DAVISVP2,2013-06-20 04:26:00,
2013-06-20 00:31:00,56.9,53.5,30.16,NNW,332,0.0,0.0,88,0.00,,OVC OVC///CB,0.00,WUHU216DAVISVP2,2013-06-20 04:31:00,
2013-06-20 00:37:00,57.1,53.4,30.16,NNW,331,0.0,0.0,87,0.00,,OVC OVC///CB,0.00,WUHU216DAVISVP2,2013-06-20 04:37:00,
2013-06-20 00:42:00,57.3,53.3,30.16,NNE,15,0.0,1.0,86,0.00,,OVC OVC///CB,0.00,WUHU216DAVISVP2,2013-06-20 04:42:00,
2013-06-20 00:46:00,57.4,53.4,30.16,NNE,15,0.0,1.0,86,0.00,,OVC OVC///CB,0.00,WUHU216DAVISVP2,2013-06-20 04:46:00,
2013-06-20 00:52:00,57.4,53.4,30.16,NNE,14,0.0,2.0,86,0.00,,OVC OVC///CB,0.00,WUHU216DAVISVP2,2013-06-20 04:52:00,
2013-06-20 00:56:00,57.6,53.3,30.16,NNE,14,0.0,2.0,85,0.00,,OVC OVC///CB,0.00,WUHU216DAVISVP2,2013-06-20 04:56:00,
2013-06-20 01:02:00,57.6,53.3,30.16,NNE,15,0.0,1.0,85,0.00,,OVC OVC///CB,0.00,WUHU216DAVISVP2,2013-06-20 05:02:00,
2013-06-20 01:06:00,57.5,53.2,30.16,NE,41,1.0,2.0,85,0.00,,OVC OVC///CB,0.00,WUHU216DAVISVP2,2013-06-20 05:06:00,
2013-06-20 01:12:00,57.5,53.2,30.16,NE,41,0.0,2.0,85,0.00,,OVC OVC///CB,0.00,WUHU216DAVISVP2,2013-06-20 05:12:00,
2013-06-20 01:17:00,57.2,53.2,30.16,NE,41,0.0,2.0,86,0.00,,OVC OVC///CB,0.00,WUHU216DAVISVP2,2013-06-20 05:17:00,
2013-06-20 01:22:00,56.8,52.8,30.16,NE,41,0.0,2.0,86,0.00,,OVC OVC///CB,0.00,WUHU216DAVISVP2,2013-06-20 05:22:00,
2013-06-20 01:27:00,56.5,52.8,30.16,NE,41,0.0,1.0,87,0.00,,OVC OVC///CB,0.00,WUHU216DAVISVP2,2013-06-20 05:27:00,
2013-06-20 01:31:00,56.2,52.5,30.16,NE,41,0.0,1.0,87,0.00,,OVC OVC///CB,0.00,WUHU216DAVISVP2,2013-06-20 05:31:00,
2013-06-20 01:37:00,56.1,52.7,30.16,NE,41,0.0,1.0,88,0.00,,OVC OVC///CB,0.00,WUHU216DAVISVP2,2013-06-20 05:37:00,
2013-06-20 01:41:00,56.0,52.6,30.15,NE,41,0.0,1.0,88,0.00,,OVC OVC///CB,0.00,WUHU216DAVISVP2,2013-06-20 05:41:00,
2013-06-20 01:46:00,55.7,52.3,30.15,NE,41,0.0,1.0,88,0.00,,OVC OVC///CB,0.00,WUHU216DAVISVP2,2013-06-20 05:46:00,
2013-06-20 01:51:00,55.3,51.9,30.15,NE,41,0.0,1.0,88,0.00,,OVC OVC///CB,0.00,WUHU216DAVISVP2,2013-06-20 05:51:00,
2013-06-20 01:56:00,55.0,51.9,30.15,NE,41,0.0,0.0,89,0.00,,OVC OVC///CB,0.00,WUHU216DAVISVP2,2013-06-20 05:56:00,
2013-06-20 02:01:00,54.6,51.5,30.15,NE,41,0.0,0.0,89,0.00,,OVC OVC///CB,0.00,WUHU216DAVISVP2,2013-06-20 06:01:00,
2013-06-20 02:06:00,54.2,51.4,30.15,NE,41,0.0,0.0,90,0.00,,OVC OVC///CB,0.00,WUHU216DAVISVP2,2013-06-20 06:06:00,
2013-06-20 02:11:00,54.1,51.6,30.15,NE,41,0.0,0.0,91,0.00,,OVC OVC///CB,0.00,WUHU216DAVISVP2,2013-06-20 06:11:00,
2013-06-20 02:16:00,54.1,51.6,30.15,NE,41,0.0,0.0,91,0.00,,OVC OVC///CB,0.00,WUHU216DAVISVP2,2013-06-20 06:16:00,
2013-06-20 02:21:00,54.2,51.7,30.15,NE,41,0.0,0.0,91,0.00,,OVC OVC///CB,0.00,WUHU216DAVISVP2,2013-06-20 06:21:00,
2013-06-20 02:26:00,54.1,51.6,30.15,NE,41,0.0,0.0,91,0.00,,OVC OVC///CB,0.00,WUHU216DAVISVP2,2013-06-20 06:26:00,
2013-06-20 02:31:00,54.1,51.6,30.15,NE,41,0.0,0.0,91,0.00,,OVC OVC///CB,0.00,WUHU216DAVISVP2,2013-06-20 06:31:00,
2013-06-20 02:36:00,54.0,51.8,30.15,NE,41,0.0,0.0,92,0.00,,OVC OVC///CB,0.00,WUHU216DAVISVP2,2013-06-20 06:36:00,
2013-06-20 02:41:00,53.9,51.7,30.15,NE,41,0.0,0.0,92,0.00,,OVC OVC///CB,0.00,WUHU216DAVISVP2,2013-06-20 06:41:00,
2013-06-20 02:46:00,53.7,51.5,30.15,NE,41,0.0,0.0,92,0.00,,OVC OVC///CB,0.00,WUHU216DAVISVP2,2013-06-20 06:46:00,
2013-06-20 02:51:00,53.6,51.7,30.15,NE,41,0.0,0.0,93,0.00,,OVC OVC///CB,0.00,WUHU216DAVISVP2,2013-06-20 06:51:00,
2013-06-20 02:56:00,53.3,51.4,30.15,NE,41,0.0,0.0,93,0.00,,OVC OVC///CB,0.00,WUHU216DAVISVP2,2013-06-20 06:56:00,
2013-06-20 03:01:00,53.0,51.1,30.15,NE,41,0.0,0.0,93,0.00,,OVC OVC///CB,0.00,WUHU216DAVISVP2,2013-06-20 07:01:00,
2013-06-20 03:06:00,52.8,51.2,30.15,NE,41,0.0,0.0,94,0.00,,OVC OVC///CB,0.00,WUHU216DAVISVP2,2013-06-20 07:06:00,
2013-06-20 03:11:00,52.7,51.1,30.15,NE,41,0.0,0.0,94,0.00,,OVC OVC///CB,0.00,WUHU216DAVISVP2,2013-06-20 07:11:00,
2013-06-20 03:16:00,52.6,51.0,30.15,NE,41,0.0,0.0,94,0.00,,OVC OVC///CB,0.00,WUHU216DAVISVP2,2013-06-20 07:16:00,
2013-06-20 03:21:00,52.5,50.9,30.15,NE,41,0.0,0.0,94,0.00,,OVC OVC///CB,0.00,WUHU216DAVISVP2,2013-06-20 07:21:00,
2013-06-20 03:26:00,52.4,50.8,30.15,NE,41,0.0,0.0,94,0.00,,OVC OVC///CB,0.00,WUHU216DAVISVP2,2013-06-20 07:26:00,
2013-06-20 03:31:00,52.3,51.0,30.16,NE,41,0.0,0.0,95,0.00,,OVC OVC///CB,0.00,WUHU216DAVISVP2,2013-06-20 07:31:00,
2013-06-20 03:36:00,52.1,50.8,30.16,NE,41,0.0,0.0,95,0.00,,OVC OVC///CB,0.00,WUHU216DAVISVP2,2013-06-20 07:36:00,
2013-06-20 03:41:00,51.9,50.6,30.16,NE,41,0.0,0.0,95,0.00,,OVC OVC///CB,0.00,WUHU216DAVISVP2,2013-06-20 07:41:00,
2013-06-20 03:46:00,51.7,50.4,30.16,NE,41,0.0,0.0,95,0.00,,OVC OVC///CB,0.00,WUHU216DAVISVP2,2013-06-20 07:46:00,
2013-06-20 03:51:00,51.5,50.5,30.16,NE,41,0.0,0.0,96,0.00,,OVC OVC///CB,0.00,WUHU216DAVISVP2,2013-06-20 07:51:00,
2013-06-20 03:56:00,51.6,50.6,30.16,NE,41,0.0,0.0,96,0.00,,OVC OVC///CB,0.00,WUHU216DAVISVP2,2013-06-20 07:56:00,
2013-06-20 04:01:00,51.5,50.5,30.16,NE,41,0.0,0.0,96,0.00,,OVC OVC///CB,0.00,WUHU216DAVISVP2,2013-06-20 08:01:00,
2013-06-20 04:06:00,51.4,50.4,30.16,NE,41,0.0,0.0,96,0.00,,OVC OVC///CB,0.00,WUHU216DAVISVP2,2013-06-20 08:06:00,
2013-06-20 04:11:00,51.3,50.3,30.17,NE,41,0.0,0.0,96,0.00,,OVC OVC///CB,0.00,WUHU216DAVISVP2,2013-06-20 08:11:00,
2013-06-20 04:16:00,51.2,50.2,30.17,NE,41,0.0,0.0,96,0.00,,OVC OVC///CB,0.00,WUHU216DAVISVP2,2013-06-20 08:16:00,
2013-06-20 04:21:00,51.0,50.0,30.16,NE,41,0.0,0.0,96,0.00,,OVC OVC///CB,0.00,WUHU216DAVISVP2,2013-06-20 08:21:00,
2013-06-20 04:26:00,51.0,50.3,30.16,NE,41,0.0,0.0,97,0.00,,OVC OVC///CB,0.00,WUHU216DAVISVP2,2013-06-20 08:26:00,
2013-06-20 04:31:00,50.9,50.2,30.16,NE,41,0.0,0.0,97,0.00,,OVC OVC///CB,0.00,WUHU216DAVISVP2,2013-06-20 08:31:00,
2013-06-20 04:36:00,50.8,50.1,30.17,NE,41,0.0,0.0,97,0.00,,OVC OVC///CB,0.00,WUHU216DAVISVP2,2013-06-20 08:36:00,
2013-06-20 04:41:00,50.8,50.1,30.17,NE,41,0.0,0.0,97,0.00,,OVC OVC///CB,0.00,WUHU216DAVISVP2,2013-06-20 08:41:00,
2013-06-20 04:46:00,50.8,50.1,30.17,NE,41,0.0,0.0,97,0.00,,OVC OVC///CB,0.00,WUHU216DAVISVP2,2013-06-20 08:46:00,
2013-06-20 04:51:00,50.7,50.0,30.17,NE,41,0.0,0.0,97,0.00,,OVC OVC///CB,0.00,WUHU216DAVISVP2,2013-06-20 08:51:00,
2013-06-20 04:56:00,50.6,49.9,30.17,NE,41,0.0,0.0,97,0.00,,OVC OVC///CB,0.00,WUHU216DAVISVP2,2013-06-20 08:56:00,
2013-06-20 05:01:00,50.5,49.8,30.17,NE,41,0.0,0.0,97,0.00,,OVC OVC///CB,0.00,WUHU216DAVISVP2,2013-06-20 09:01:00,
2013-06-20 05:06:00,50.4,49.9,30.17,NE,41,0.0,0.0,98,0.00,,OVC OVC///CB,0.00,WUHU216DAVISVP2,2013-06-20 09:06:00,
2013-06-20 05:11:00,50.2,49.7,30.17,NE,41,0.0,0.0,98,0.00,,OVC OVC///CB,0.00,WUHU216DAVISVP2,2013-06-20 09:11:00,
2013-06-20 05:16:00,49.9,49.4,30.17,NE,41,0.0,0.0,98,0.00,,OVC OVC///CB,0.00,WUHU216DAVISVP2,2013-06-20 09:16:00,
2013-06-20 05:21:00,49.8,49.3,30.17,NE,41,0.0,0.0,98,0.00,,OVC OVC///CB,0.00,WUHU216DAVISVP2,2013-06-20 09:21:00,
2013-06-20 05:26:00,49.9,49.4,30.17,NE,41,0.0,0.0,98,0.00,,OVC OVC///CB,0.00,WUHU216DAVISVP2,2013-06-20 09:26:00,
2013-06-20 05:31:00,49.9,49.4,30.17,NE,41,0.0,0.0,98,0.00,,OVC OVC///CB,0.00,WUHU216DAVISVP2,2013-06-20 09:31:00,
2013-06-20 05:36:00,49.8,49.3,30.17,NE,41,0.0,0.0,98,0.00,,OVC OVC///CB,0.00,WUHU216DAVISVP2,2013-06-20 09:36:00,
2013-06-20 05:41:00,49.7,49.2,30.17,NE,41,0.0,0.0,98,0.00,,OVC OVC///CB,0.00,WUHU216DAVISVP2,2013-06-20 09:41:00,
2013-06-20 05:46:00,49.8,49.6,30.17,NE,41,0.0,0.0,99,0.00,,OVC OVC///CB,0.00,WUHU216DAVISVP2,2013-06-20 09:46:00,
2013-06-20 05:51:00,49.7,49.2,30.17,NE,41,0.0,0.0,98,0.00,,OVC OVC///CB,0.00,WUHU216DAVISVP2,2013-06-20 09:51:00,
2013-06-20 05:56:00,49.7,49.5,30.17,NE,41,0.0,0.0,99,0.00,,OVC OVC///CB,0.00,WUHU216DAVISVP2,2013-06-20 09:56:00,
2013-06-20 06:01:00,49.6,49.4,30.17,NE,41,0.0,0.0,99,0.00,,OVC OVC///CB,0.00,WUHU216DAVISVP2,2013-06-20 10:01:00,
2013-06-20 06:06:00,49.5,49.3,30.18,NE,41,0.0,0.0,99,0.00,,OVC OVC///CB,0.00,WUHU216DAVISVP2,2013-06-20 10:06:00,
2013-06-20 06:11:00,49.4,49.2,30.18,NE,41,0.0,0.0,99,0.00,,OVC OVC///CB,0.00,WUHU216DAVISVP2,2013-06-20 10:11:00,
2013-06-20 06:16:00,49.4,49.2,30.18,NE,41,0.0,0.0,99,0.00,,OVC OVC///CB,0.00,WUHU216DAVISVP2,2013-06-20 10:16:00,
2013-06-20 06:21:00,49.4,49.2,30.18,NE,41,0.0,0.0,99,0.00,,OVC OVC///CB,0.00,WUHU216DAVISVP2,2013-06-20 10:21:00,
2013-06-20 06:26:00,49.5,49.3,30.18,NE,41,0.0,0.0,99,0.00,,OVC OVC///CB,0.00,WUHU216DAVISVP2,2013-06-20 10:26:00,
2013-06-20 06:31:00,49.5,49.3,30.18,NE,41,0.0,0.0,99,0.00,,OVC OVC///CB,0.00,WUHU216DAVISVP2,2013-06-20 10:31:00,
2013-06-20 06:36:00,49.6,49.4,30.19,NE,41,0.0,0.0,99,0.00,,OVC OVC///CB,0.00,WUHU216DAVISVP2,2013-06-20 10:36:00,
2013-06-20 06:41:00,49.9,49.7,30.19,NE,41,0.0,0.0,99,0.00,,OVC OVC///CB,0.00,WUHU216DAVISVP2,2013-06-20 10:41:00,
2013-06-20 06:46:00,50.4,50.2,30.19,NE,41,0.0,0.0,99,0.00,,OVC OVC///CB,0.00,WUHU216DAVISVP2,2013-06-20 10:46:00,
2013-06-20 06:51:00,50.8,50.6,30.19,NE,41,0.0,0.0,99,0.00,,OVC OVC///CB,0.00,WUHU216DAVISVP2,2013-06-20 10:51:00,
2013-06-20 06:56:00,51.1,50.9,30.19,NE,41,0.0,0.0,99,0.00,,OVC OVC///CB,0.00,WUHU216DAVISVP2,2013-06-20 10:56:00,
2013-06-20 07:01:00,51.7,51.5,30.19,NE,41,0.0,0.0,99,0.00,,OVC OVC///CB,0.00,WUHU216DAVISVP2,2013-06-20 11:01:00,
2013-06-20 07:06:00,52.4,52.2,30.19,NE,41,0.0,0.0,99,0.00,,OVC OVC///CB,0.00,WUHU216DAVISVP2,2013-06-20 11:06:00,
2013-06-20 07:11:00,52.9,52.4,30.19,NE,41,0.0,0.0,98,0.00,,OVC OVC///CB,0.00,WUHU216DAVISVP2,2013-06-20 11:11:00,
2013-06-20 07:16:00,53.5,52.8,30.19,NE,41,0.0,0.0,97,0.00,,OVC OVC///CB,0.00,WUHU216DAVISVP2,2013-06-20 11:16:00,
2013-06-20 07:21:00,54.1,53.1,30.19,NE,41,0.0,0.0,96,0.00,,OVC OVC///CB,0.00,WUHU216DAVISVP2,2013-06-20 11:21:00,
2013-06-20 07:26:00,55.1,54.1,30.19,NE,41,0.0,0.0,96,0.00,,OVC OVC///CB,0.00,WUHU216DAVISVP2,2013-06-20 11:26:00,
2013-06-20 07:31:00,56.1,54.5,30.19,NE,41,0.0,0.0,94,0.00,,OVC OVC///CB,0.00,WUHU216DAVISVP2,2013-06-20 11:31:00,
2013-06-20 07:36:00,57.4,55.2,30.20,NE,41,0.0,0.0,92,0.00,,OVC OVC///CB,0.00,WUHU216DAVISVP2,2013-06-20 11:36:00,
2013-06-20 07:41:00,58.6,55.5,30.19,NE,41,0.0,1.0,89,0.00,,OVC OVC///CB,0.00,WUHU216DAVISVP2,2013-06-20 11:41:00,
2013-06-20 07:46:00,59.9,55.8,30.20,NE,41,0.0,1.0,86,0.00,,OVC OVC///CB,0.00,WUHU216DAVISVP2,2013-06-20 11:46:00,
2013-06-20 07:51:00,60.4,55.7,30.20,NE,41,0.0,1.0,84,0.00,,OVC OVC///CB,0.00,WUHU216DAVISVP2,2013-06-20 11:51:00,
2013-06-20 07:56:00,61.1,56.1,30.20,NE,41,0.0,1.0,83,0.00,,OVC OVC///CB,0.00,WUHU216DAVISVP2,2013-06-20 11:56:00,
2013-06-20 08:01:00,61.0,56.0,30.20,NE,41,0.0,1.0,83,0.00,,OVC OVC///CB,0.00,WUHU216DAVISVP2,2013-06-20 12:01:00,
2013-06-20 08:06:00,61.3,55.9,30.20,NE,41,0.0,1.0,82,0.00,,OVC OVC///CB,0.00,WUHU216DAVISVP2,2013-06-20 12:06:00,
2013-06-20 08:11:00,62.2,56.5,30.20,NE,41,0.0,1.0,81,0.00,,OVC OVC///CB,0.00,WUHU216DAVISVP2,2013-06-20 12:11:00,
2013-06-20 08:16:00,63.5,57.4,30.21,NE,41,0.0,1.0,80,0.00,,OVC OVC///CB,0.00,WUHU216DAVISVP2,2013-06-20 12:16:00,
2013-06-20 08:21:00,63.8,57.0,30.21,NE,41,0.0,1.0,78,0.00,,OVC OVC///CB,0.00,WUHU216DAVISVP2,2013-06-20 12:21:00,
2013-06-20 08:26:00,64.1,57.0,30.21,NE,41,0.0,1.0,77,0.00,,OVC OVC///CB,0.00,WUHU216DAVISVP2,2013-06-20 12:26:00,
2013-06-20 08:31:00,64.5,57.0,30.21,NE,40,0.0,1.0,76,0.00,,OVC OVC///CB,0.00,WUHU216DAVISVP2,2013-06-20 12:31:00,
2013-06-20 08:36:00,64.6,57.5,30.21,NE,41,0.0,1.0,77,0.00,,OVC OVC///CB,0.00,WUHU216DAVISVP2,2013-06-20 12:36:00,
2013-06-20 08:41:00,65.1,57.6,30.21,WSW,250,0.0,1.0,76,0.00,,OVC OVC///CB,0.00,WUHU216DAVISVP2,2013-06-20 12:41:00,
2013-06-20 08:46:00,65.4,57.5,30.21,SW,224,0.0,1.0,75,0.00,,OVC OVC///CB,0.00,WUHU216DAVISVP2,2013-06-20 12:46:00,
2013-06-20 08:51:00,66.1,57.8,30.22,SSW,208,1.0,1.0,74,0.00,,OVC OVC///CB,0.00,WUHU216DAVISVP2,2013-06-20 12:51:00,
2013-06-20 08:56:00,67.1,58.4,30.22,SSE,148,0.0,1.0,73,0.00,,OVC OVC///CB,0.00,WUHU216DAVISVP2,2013-06-20 12:56:00,
2013-06-20 09:01:00,68.1,58.7,30.22,WSW,252,1.0,1.0,71,0.00,,OVC OVC///CB,0.00,WUHU216DAVISVP2,2013-06-20 13:01:00,
2013-06-20 09:06:00,68.0,58.6,30.22,WSW,243,0.0,2.0,71,0.00,,OVC OVC///CB,0.00,WUHU216DAVISVP2,2013-06-20 13:06:00,
2013-06-20 09:11:00,68.2,58.0,30.22,SSW,203,0.0,2.0,69,0.00,,OVC OVC///CB,0.00,WUHU216DAVISVP2,2013-06-20 13:11:00,
2013-06-20 09:16:00,68.3,58.1,30.22,SE,143,0.0,3.0,69,0.00,,OVC OVC///CB,0.00,WUHU216DAVISVP2,2013-06-20 13:16:00,
2013-06-20 09:21:00,68.9,58.6,30.22,SSE,158,0.0,3.0,69,0.00,,OVC OVC///CB,0.00,WUHU216DAVISVP2,2013-06-20 13:21:00,
2013-06-20 09:26:00,69.0,58.3,30.22,SW,224,2.0,4.0,68,0.00,,OVC OVC///CB,0.00,WUHU216DAVISVP2,2013-06-20 13:26:00,
2013-06-20 09:31:00,69.4,58.3,30.22,ESE,103,0.0,4.0,67,0.00,,OVC OVC///CB,0.00,WUHU216DAVISVP2,2013-06-20 13:31:00,
2013-06-20 09:36:00,69.8,58.3,30.22,SSE,160,0.0,3.0,66,0.00,,OVC OVC///CB,0.00,WUHU216DAVISVP2,2013-06-20 13:36:00,
2013-06-20 09:41:00,70.1,57.7,30.22,SSW,212,0.0,4.0,64,0.00,,OVC OVC///CB,0.00,WUHU216DAVISVP2,2013-06-20 13:41:00,
2013-06-20 09:46:00,70.4,57.1,30.22,SW,217,0.0,4.0,62,0.00,,OVC OVC///CB,0.00,WUHU216DAVISVP2,2013-06-20 13:46:00,
2013-06-20 09:51:00,70.6,57.3,30.22,SSW,200,0.0,3.0,62,0.00,,OVC OVC///CB,0.00,WUHU216DAVISVP2,2013-06-20 13:51:00,
2013-06-20 09:56:00,71.3,57.5,30.22,SSW,211,0.0,3.0,61,0.00,,OVC OVC///CB,0.00,WUHU216DAVISVP2,2013-06-20 13:56:00,
2013-06-20 10:01:00,71.8,57.5,30.22,SSE,160,2.0,4.0,60,0.00,,OVC OVC///CB,0.00,WUHU216DAVISVP2,2013-06-20 14:01:00,
2013-06-20 10:06:00,72.2,57.9,30.22,SW,228,2.0,4.0,60,0.00,,OVC OVC///CB,0.00,WUHU216DAVISVP2,2013-06-20 14:06:00,
2013-06-20 10:11:00,71.7,56.5,30.22,West,276,2.0,4.0,58,0.00,,OVC OVC///CB,0.00,WUHU216DAVISVP2,2013-06-20 14:11:00,
2013-06-20 10:16:00,71.6,54.4,30.22,SW,219,0.0,4.0,54,0.00,,OVC OVC///CB,0.00,WUHU216DAVISVP2,2013-06-20 14:16:00,
2013-06-20 10:21:00,72.5,57.3,30.22,East,94,2.0,4.0,58,0.00,,OVC OVC///CB,0.00,WUHU216DAVISVP2,2013-06-20 14:21:00,
2013-06-20 10:26:00,72.9,55.1,30.22,WSW,238,0.0,4.0,53,0.00,,OVC OVC///CB,0.00,WUHU216DAVISVP2,2013-06-20 14:26:00,
2013-06-20 10:31:00,72.9,53.5,30.22,West,262,0.0,4.0,50,0.00,,OVC OVC///CB,0.00,WUHU216DAVISVP2,2013-06-20 14:31:00,
2013-06-20 10:36:00,73.1,51.9,30.22,East,85,1.0,4.0,47,0.00,,OVC OVC///CB,0.00,WUHU216DAVISVP2,2013-06-20 14:36:00,
2013-06-20 10:41:00,73.2,54.3,30.22,SSW,204,0.0,4.0,51,0.00,,OVC OVC///CB,0.00,WUHU216DAVISVP2,2013-06-20 14:41:00,
2013-06-20 10:46:00,73.8,54.9,30.21,SSW,205,0.0,3.0,51,0.00,,OVC OVC///CB,0.00,WUHU216DAVISVP2,2013-06-20 14:46:00,
2013-06-20 10:51:00,74.1,52.8,30.21,NW,308,3.0,4.0,47,0.00,,OVC OVC///CB,0.00,WUHU216DAVISVP2,2013-06-20 14:51:00,
2013-06-20 10:56:00,73.5,53.5,30.22,SW,228,4.0,6.0,49,0.00,,OVC OVC///CB,0.00,WUHU216DAVISVP2,2013-06-20 14:56:00,
2013-06-20 11:01:00,73.5,55.7,30.22,NNE,18,4.0,6.0,53,0.00,,OVC OVC///CB,0.00,WUHU216DAVISVP2,2013-06-20 15:01:00,
2013-06-20 11:06:00,73.5,53.5,30.22,ESE,114,0.0,5.0,49,0.00,,OVC OVC///CB,0.00,WUHU216DAVISVP2,2013-06-20 15:06:00,
2013-06-20 11:11:00,73.8,53.7,30.21,NNE,25,3.0,5.0,49,0.00,,OVC OVC///CB,0.00,WUHU216DAVISVP2,2013-06-20 15:11:00,
2013-06-20 11:16:00,73.3,53.3,30.21,NE,56,2.0,6.0,49,0.00,,OVC OVC///CB,0.00,WUHU216DAVISVP2,2013-06-20 15:16:00,
2013-06-20 11:21:00,73.3,53.3,30.21,NNE,19,3.0,6.0,49,0.00,,OVC OVC///CB,0.00,WUHU216DAVISVP2,2013-06-20 15:21:00,
2013-06-20 11:26:00,73.4,53.4,30.21,West,276,0.0,6.0,49,0.00,,OVC OVC///CB,0.00,WUHU216DAVISVP2,2013-06-20 15:26:00,
2013-06-20 11:31:00,74.2,54.7,30.21,WSW,256,1.0,5.0,50,0.00,,OVC OVC///CB,0.00,WUHU216DAVISVP2,2013-06-20 15:31:00,
2013-06-20 11:36:00,74.3,54.2,30.21,West,278,3.0,5.0,49,0.00,,OVC OVC///CB,0.00,WUHU216DAVISVP2,2013-06-20 15:36:00,
2013-06-20 11:41:00,74.5,53.2,30.21,SW,221,0.0,5.0,47,0.00,,OVC OVC///CB,0.00,WUHU216DAVISVP2,2013-06-20 15:41:00,
2013-06-20 11:46:00,75.6,54.2,30.21,NNW,333,4.0,5.0,47,0.00,,OVC OVC///CB,0.00,WUHU216DAVISVP2,2013-06-20 15:46:00,
2013-06-20 11:51:00,75.1,53.8,30.21,NNE,26,4.0,6.0,47,0.00,,OVC OVC///CB,0.00,WUHU216DAVISVP2,2013-06-20 15:51:00,
2013-06-20 11:56:00,74.0,52.8,30.21,East,89,3.0,6.0,47,0.00,,OVC OVC///CB,0.00,WUHU216DAVISVP2,2013-06-20 15:56:00,
2013-06-20 12:01:00,74.2,54.1,30.21,NW,325,1.0,6.0,49,0.00,,OVC OVC///CB,0.00,WUHU216DAVISVP2,2013-06-20 16:01:00,
2013-06-20 12:06:00,74.6,53.9,30.21,NNW,333,4.0,6.0,48,0.00,,OVC OVC///CB,0.00,WUHU216DAVISVP2,2013-06-20 16:06:00,
2013-06-20 12:11:00,74.6,53.3,30.21,WNW,288,3.0,5.0,47,0.00,,OVC OVC///CB,0.00,WUHU216DAVISVP2,2013-06-20 16:11:00,
2013-06-20 12:16:00,74.4,53.1,30.20,WSW,245,3.0,6.0,47,0.00,,OVC OVC///CB,0.00,WUHU216DAVISVP2,2013-06-20 16:16:00,
2013-06-20 12:21:00,74.8,54.1,30.20,West,276,1.0,6.0,48,0.00,,OVC OVC///CB,0.00,WUHU216DAVISVP2,2013-06-20 16:21:00,
2013-06-20 12:26:00,75.5,54.7,30.20,SW,233,1.0,5.0,48,0.00,,OVC OVC///CB,0.00,WUHU216DAVISVP2,2013-06-20 16:26:00,
2013-06-20 12:31:00,75.3,53.9,30.21,NE,54,2.0,7.0,47,0.00,,OVC OVC///CB,0.00,WUHU216DAVISVP2,2013-06-20 16:31:00,
2013-06-20 12:36:00,75.8,54.4,30.21,SSE,160,0.0,7.0,47,0.00,,OVC OVC///CB,0.00,WUHU216DAVISVP2,2013-06-20 16:36:00,
2013-06-20 12:41:00,76.7,54.6,30.20,SSE,166,0.0,6.0,46,0.00,,OVC OVC///CB,0.00,WUHU216DAVISVP2,2013-06-20 16:41:00,
2013-06-20 12:46:00,76.6,54.5,30.20,SW,235,4.0,6.0,46,0.00,,OVC OVC///CB,0.00,WUHU216DAVISVP2,2013-06-20 16:46:00,
2013-06-20 12:51:00,75.9,53.9,30.20,West,271,0.0,6.0,46,0.00,,OVC OVC///CB,0.00,WUHU216DAVISVP2,2013-06-20 16:51:00,
2013-06-20 12:56:00,75.8,54.4,30.20,North,352,0.0,6.0,47,0.00,,OVC OVC///CB,0.00,WUHU216DAVISVP2,2013-06-20 16:56:00,
2013-06-20 13:01:00,75.9,53.9,30.20,NW,316,2.0,8.0,46,0.00,,OVC OVC///CB,0.00,WUHU216DAVISVP2,2013-06-20 17:01:00,
2013-06-20 13:06:00,75.7,53.1,30.20,West,264,3.0,8.0,45,0.00,,OVC OVC///CB,0.00,WUHU216DAVISVP2,2013-06-20 17:06:00,
2013-06-20 13:11:00,75.5,53.5,30.20,SW,233,0.0,8.0,46,0.00,,OVC OVC///CB,0.00,WUHU216DAVISVP2,2013-06-20 17:11:00,
2013-06-20 13:16:00,76.0,53.4,30.20,NE,45,0.0,8.0,45,0.00,,OVC OVC///CB,0.00,WUHU216DAVISVP2,2013-06-20 17:16:00,
2013-06-20 13:21:00,76.4,53.1,30.19,WNW,303,1.0,7.0,44,0.00,,OVC OVC///CB,0.00,WUHU216DAVISVP2,2013-06-20 17:21:00,
2013-06-20 13:26:00,76.1,54.7,30.19,East,86,0.0,4.0,47,0.00,,OVC OVC///CB,0.00,WUHU216DAVISVP2,2013-06-20 17:26:00,
2013-06-20 13:31:00,76.4,55.0,30.19,ESE,113,5.0,7.0,47,0.00,,OVC OVC///CB,0.00,WUHU216DAVISVP2,2013-06-20 17:31:00,
2013-06-20 13:36:00,76.6,55.7,30.19,NE,37,5.0,7.0,48,0.00,,OVC OVC///CB,0.00,WUHU216DAVISVP2,2013-06-20 17:36:00,
2013-06-20 13:41:00,76.6,55.1,30.19,NNE,23,5.0,7.0,47,0.00,,OVC OVC///CB,0.00,WUHU216DAVISVP2,2013-06-20 17:41:00,
2013-06-20 13:46:00,76.4,54.4,30.19,ESE,110,2.0,7.0,46,0.00,,OVC OVC///CB,0.00,WUHU216DAVISVP2,2013-06-20 17:46:00,
2013-06-20 13:51:00,76.2,54.8,30.18,East,93,5.0,7.0,47,0.00,,OVC OVC///CB,0.00,WUHU216DAVISVP2,2013-06-20 17:51:00,
2013-06-20 13:56:00,76.3,55.5,30.18,ESE,113,2.0,7.0,48,0.00,,OVC OVC///CB,0.00,WUHU216DAVISVP2,2013-06-20 17:56:00,
2013-06-20 14:01:00,76.7,54.6,30.18,NE,46,2.0,7.0,46,0.00,,OVC OVC///CB,0.00,WUHU216DAVISVP2,2013-06-20 18:01:00,
2013-06-20 14:06:00,76.7,55.2,30.18,ENE,74,4.0,7.0,47,0.00,,OVC OVC///CB,0.00,WUHU216DAVISVP2,2013-06-20 18:06:00,
2013-06-20 14:11:00,76.8,55.3,30.18,NE,47,3.0,7.0,47,0.00,,OVC OVC///CB,0.00,WUHU216DAVISVP2,2013-06-20 18:11:00,
2013-06-20 14:16:00,76.9,56.0,30.18,NNE,22,2.0,7.0,48,0.00,,OVC OVC///CB,0.00,WUHU216DAVISVP2,2013-06-20 18:16:00,
2013-06-20 14:21:00,77.2,54.5,30.18,NE,45,1.0,6.0,45,0.00,,OVC OVC///CB,0.00,WUHU216DAVISVP2,2013-06-20 18:21:00,
2013-06-20 14:26:00,77.0,54.3,30.18,NE,46,4.0,6.0,45,0.00,,OVC OVC///CB,0.00,WUHU216DAVISVP2,2013-06-20 18:26:00,
2013-06-20 14:31:00,76.9,53.6,30.18,ESE,113,1.0,6.0,44,0.00,,OVC OVC///CB,0.00,WUHU216DAVISVP2,2013-06-20 18:31:00,
2013-06-20 14:36:00,76.7,54.0,30.18,SE,127,0.0,6.0,45,0.00,,OVC OVC///CB,0.00,WUHU216DAVISVP2,2013-06-20 18:36:00,
2013-06-20 14:41:00,77.3,54.6,30.18,ESE,104,2.0,6.0,45,0.00,,OVC OVC///CB,0.00,WUHU216DAVISVP2,2013-06-20 18:41:00,
2013-06-20 14:46:00,78.6,57.6,30.18,North,359,3.0,6.0,48,0.00,,OVC OVC///CB,0.00,WUHU216DAVISVP2,2013-06-20 18:46:00,
2013-06-20 14:51:00,78.5,56.3,30.18,East,81,0.0,6.0,46,0.00,,OVC OVC///CB,0.00,WUHU216DAVISVP2,2013-06-20 18:51:00,
2013-06-20 14:56:00,79.1,55.6,30.19,West,276,4.0,6.0,44,0.00,,OVC OVC///CB,0.00,WUHU216DAVISVP2,2013-06-20 18:56:00,
2013-06-20 15:01:00,78.5,55.7,30.19,NNW,343,1.0,7.0,45,0.00,,OVC OVC///CB,0.00,WUHU216DAVISVP2,2013-06-20 19:01:00,
2013-06-20 15:06:00,78.0,55.2,30.19,South,188,0.0,7.0,45,0.00,,OVC OVC///CB,0.00,WUHU216DAVISVP2,2013-06-20 19:06:00,
2013-06-20 15:11:00,78.4,54.9,30.19,NE,49,2.0,7.0,44,0.00,,OVC OVC///CB,0.00,WUHU216DAVISVP2,2013-06-20 19:11:00,
2013-06-20 15:16:00,78.2,56.6,30.19,West,261,3.0,7.0,47,0.00,,OVC OVC///CB,0.00,WUHU216DAVISVP2,2013-06-20 19:16:00,
2013-06-20 15:21:00,78.4,56.8,30.19,WNW,287,2.0,7.0,47,0.00,,OVC OVC///CB,0.00,WUHU216DAVISVP2,2013-06-20 19:21:00,
2013-06-20 15:26:00,78.3,55.5,30.19,SSW,210,0.0,7.0,45,0.00,,OVC OVC///CB,0.00,WUHU216DAVISVP2,2013-06-20 19:26:00,
2013-06-20 15:31:00,78.7,56.5,30.19,SSW,208,1.0,7.0,46,0.00,,OVC OVC///CB,0.00,WUHU216DAVISVP2,2013-06-20 19:31:00,
2013-06-20 15:36:00,79.7,56.1,30.19,NW,326,1.0,7.0,44,0.00,,OVC OVC///CB,0.00,WUHU216DAVISVP2,2013-06-20 19:36:00,
2013-06-20 15:41:00,79.7,56.1,30.19,SW,229,3.0,8.0,44,0.00,,OVC OVC///CB,0.00,WUHU216DAVISVP2,2013-06-20 19:41:00,
2013-06-20 15:46:00,79.4,58.3,30.19,WNW,300,1.0,8.0,48,0.00,,OVC OVC///CB,0.00,WUHU216DAVISVP2,2013-06-20 19:46:00,
2013-06-20 15:51:00,79.3,57.0,30.19,NW,323,2.0,8.0,46,0.00,,OVC OVC///CB,0.00,WUHU216DAVISVP2,2013-06-20 19:51:00,
2013-06-20 15:56:00,78.7,55.8,30.19,WNW,291,2.0,8.0,45,0.00,,OVC OVC///CB,0.00,WUHU216DAVISVP2,2013-06-20 19:56:00,
2013-06-20 16:01:00,78.6,55.7,30.19,West,278,1.0,6.0,45,0.00,,OVC OVC///CB,0.00,WUHU216DAVISVP2,2013-06-20 20:01:00,
2013-06-20 16:06:00,78.6,56.4,30.19,NNW,345,5.0,6.0,46,0.00,,OVC OVC///CB,0.00,WUHU216DAVISVP2,2013-06-20 20:06:00,
2013-06-20 16:11:00,78.4,55.6,30.19,West,274,2.0,6.0,45,0.00,,OVC OVC///CB,0.00,WUHU216DAVISVP2,2013-06-20 20:11:00,
2013-06-20 16:16:00,78.5,55.7,30.19,WNW,293,3.0,7.0,45,0.00,,OVC OVC///CB,0.00,WUHU216DAVISVP2,2013-06-20 20:16:00,
2013-06-20 16:21:00,79.1,56.8,30.19,West,259,2.0,7.0,46,0.00,,OVC OVC///CB,0.00,WUHU216DAVISVP2,2013-06-20 20:21:00,
2013-06-20 16:26:00,79.0,54.2,30.19,NNW,345,3.0,7.0,42,0.00,,OVC OVC///CB,0.00,WUHU216DAVISVP2,2013-06-20 20:26:00,
2013-06-20 16:31:00,79.2,55.0,30.19,WSW,241,3.0,7.0,43,0.00,,OVC OVC///CB,0.00,WUHU216DAVISVP2,2013-06-20 20:31:00,
2013-06-20 16:36:00,79.2,55.7,30.19,NNW,333,4.0,7.0,44,0.00,,OVC OVC///CB,0.00,WUHU216DAVISVP2,2013-06-20 20:36:00,
2013-06-20 16:41:00,79.2,55.0,30.19,West,274,1.0,7.0,43,0.00,,OVC OVC///CB,0.00,WUHU216DAVISVP2,2013-06-20 20:41:00,
2013-06-20 16:46:00,79.5,55.9,30.19,East,86,0.0,7.0,44,0.00,,OVC OVC///CB,0.00,WUHU216DAVISVP2,2013-06-20 20:46:00,
2013-06-20 16:51:00,79.4,55.8,30.19,North,352,1.0,7.0,44,0.00,,OVC OVC///CB,0.00,WUHU216DAVISVP2,2013-06-20 20:51:00,
2013-06-20 16:56:00,78.8,54.6,30.19,ESE,110,1.0,6.0,43,0.00,,OVC OVC///CB,0.00,WUHU216DAVISVP2,2013-06-20 20:56:00,
2013-06-20 17:01:00,79.1,55.6,30.18,West,278,2.0,7.0,44,0.00,,OVC OVC///CB,0.00,WUHU216DAVISVP2,2013-06-20 21:01:00,
2013-06-20 17:06:00,79.5,56.6,30.19,North,349,2.0,7.0,45,0.00,,OVC OVC///CB,0.00,WUHU216DAVISVP2,2013-06-20 21:06:00,
2013-06-20 17:11:00,79.3,57.0,30.18,North,354,4.0,7.0,46,0.00,,OVC OVC///CB,0.00,WUHU216DAVISVP2,2013-06-20 21:11:00,
2013-06-20 17:16:00,79.1,55.6,30.19,WNW,293,0.0,7.0,44,0.00,,OVC OVC///CB,0.00,WUHU216DAVISVP2,2013-06-20 21:16:00,
2013-06-20 17:21:00,79.5,55.9,30.19,NNW,335,2.0,6.0,44,0.00,,OVC OVC///CB,0.00,WUHU216DAVISVP2,2013-06-20 21:21:00,
2013-06-20 17:26:00,79.2,55.7,30.18,NNE,27,2.0,6.0,44,0.00,,OVC OVC///CB,0.00,WUHU216DAVISVP2,2013-06-20 21:26:00,
2013-06-20 17:31:00,79.1,55.6,30.18,NNW,338,0.0,6.0,44,0.00,,OVC OVC///CB,0.00,WUHU216DAVISVP2,2013-06-20 21:31:00,
2013-06-20 17:36:00,79.2,55.7,30.18,North,352,2.0,6.0,44,0.00,,OVC OVC///CB,0.00,WUHU216DAVISVP2,2013-06-20 21:36:00,
2013-06-20 17:41:00,79.1,54.9,30.19,WNW,286,1.0,5.0,43,0.00,,OVC OVC///CB,0.00,WUHU216DAVISVP2,2013-06-20 21:41:00,
2013-06-20 17:46:00,79.0,55.5,30.18,WSW,252,0.0,4.0,44,0.00,,OVC OVC///CB,0.00,WUHU216DAVISVP2,2013-06-20 21:46:00,
2013-06-20 17:51:00,79.1,56.2,30.18,WNW,286,0.0,4.0,45,0.00,,OVC OVC///CB,0.00,WUHU216DAVISVP2,2013-06-20 21:51:00,
2013-06-20 17:56:00,78.9,55.4,30.18,West,281,0.0,4.0,44,0.00,,OVC OVC///CB,0.00,WUHU216DAVISVP2,2013-06-20 21:56:00,
2013-06-20 18:01:00,78.7,57.1,30.18,WNW,297,2.0,4.0,47,0.00,,OVC OVC///CB,0.00,WUHU216DAVISVP2,2013-06-20 22:01:00,
2013-06-20 18:06:00,78.7,56.5,30.18,NE,46,4.0,4.0,46,0.00,,OVC OVC///CB,0.00,WUHU216DAVISVP2,2013-06-20 22:06:00,
2013-06-20 18:11:00,78.1,55.3,30.18,NNW,339,1.0,6.0,45,0.00,,OVC OVC///CB,0.00,WUHU216DAVISVP2,2013-06-20 22:11:00,
2013-06-20 18:16:00,78.1,55.9,30.17,ENE,73,1.0,6.0,46,0.00,,OVC OVC///CB,0.00,WUHU216DAVISVP2,2013-06-20 22:16:00,
2013-06-20 18:21:00,78.3,57.3,30.18,West,277,0.0,5.0,48,0.00,,OVC OVC///CB,0.00,WUHU216DAVISVP2,2013-06-20 22:21:00,
2013-06-20 18:26:00,79.0,57.3,30.17,West,280,1.0,5.0,47,0.00,,OVC OVC///CB,0.00,WUHU216DAVISVP2,2013-06-20 22:26:00,
2013-06-20 18:31:00,79.0,56.7,30.17,WNW,291,3.0,3.0,46,0.00,,OVC OVC///CB,0.00,WUHU216DAVISVP2,2013-06-20 22:31:00,
2013-06-20 18:36:00,79.0,56.7,30.17,West,274,0.0,3.0,46,0.00,,OVC OVC///CB,0.00,WUHU216DAVISVP2,2013-06-20 22:36:00,
2013-06-20 18:41:00,79.2,58.1,30.17,NE,51,0.0,3.0,48,0.00,,OVC OVC///CB,0.00,WUHU216DAVISVP2,2013-06-20 22:41:00,
2013-06-20 18:46:00,78.9,57.9,30.17,NW,314,1.0,4.0,48,0.00,,OVC OVC///CB,0.00,WUHU216DAVISVP2,2013-06-20 22:46:00,
2013-06-20 18:51:00,78.4,56.2,30.17,North,6,1.0,4.0,46,0.00,,OVC OVC///CB,0.00,WUHU216DAVISVP2,2013-06-20 22:51:00,
2013-06-20 18:56:00,78.8,57.8,30.17,SW,228,0.0,4.0,48,0.00,,OVC OVC///CB,0.00,WUHU216DAVISVP2,2013-06-20 22:56:00,
2013-06-20 19:01:00,79.2,57.5,30.17,North,10,0.0,4.0,47,0.00,,OVC OVC///CB,0.00,WUHU216DAVISVP2,2013-06-20 23:01:00,
2013-06-20 19:06:00,78.9,57.9,30.17,WNW,300,0.0,5.0,48,0.00,,OVC OVC///CB,0.00,WUHU216DAVISVP2,2013-06-20 23:06:00,
2013-06-20 19:11:00,78.9,57.3,30.17,West,263,0.0,5.0,47,0.00,,OVC OVC///CB,0.00,WUHU216DAVISVP2,2013-06-20 23:11:00,
2013-06-20 19:16:00,79.2,58.1,30.17,SW,232,0.0,5.0,48,0.00,,OVC OVC///CB,0.00,WUHU216DAVISVP2,2013-06-20 23:16:00,
2013-06-20 19:21:00,79.2,57.5,30.17,NE,37,1.0,5.0,47,0.00,,OVC OVC///CB,0.00,WUHU216DAVISVP2,2013-06-20 23:21:00,
2013-06-20 19:26:00,78.8,56.5,30.17,WNW,285,1.0,3.0,46,0.00,,OVC OVC///CB,0.00,WUHU216DAVISVP2,2013-06-20 23:26:00,
2013-06-20 19:31:00,78.6,57.0,30.17,WSW,248,0.0,3.0,47,0.00,,OVC OVC///CB,0.00,WUHU216DAVISVP2,2013-06-20 23:31:00,
2013-06-20 19:36:00,78.6,56.4,30.17,West,280,0.0,3.0,46,0.00,,OVC OVC///CB,0.00,WUHU216DAVISVP2,2013-06-20 23:36:00,
2013-06-20 19:41:00,79.3,57.6,30.17,North,349,1.0,2.0,47,0.00,,OVC OVC///CB,0.00,WUHU216DAVISVP2,2013-06-20 23:41:00,
2013-06-20 19:46:00,78.9,57.9,30.17,North,11,0.0,2.0,48,0.00,,OVC OVC///CB,0.00,WUHU216DAVISVP2,2013-06-20 23:46:00,
2013-06-20 19:51:00,78.8,57.8,30.17,NNE,18,0.0,2.0,48,0.00,,OVC OVC///CB,0.00,WUHU216DAVISVP2,2013-06-20 23:51:00,
2013-06-20 19:56:00,78.9,57.9,30.17,NNE,18,0.0,2.0,48,0.00,,OVC OVC///CB,0.00,WUHU216DAVISVP2,2013-06-20 23:56:00,
2013-06-20 20:01:00,78.9,57.3,30.17,NNE,18,0.0,1.0,47,0.00,,OVC OVC///CB,0.00,WUHU216DAVISVP2,2013-06-21 00:01:00,
2013-06-20 20:06:00,78.9,58.4,30.17,NNE,18,0.0,1.0,49,0.00,,OVC OVC///CB,0.00,WUHU216DAVISVP2,2013-06-21 00:06:00,
2013-06-20 20:11:00,78.8,58.3,30.17,NNE,18,0.0,1.0,49,0.00,,OVC OVC///CB,0.00,WUHU216DAVISVP2,2013-06-21 00:11:00,
2013-06-20 20:16:00,78.4,58.6,30.16,NNE,18,0.0,1.0,50,0.00,,OVC OVC///CB,0.00,WUHU216DAVISVP2,2013-06-21 00:16:00,
2013-06-20 20:21:00,78.3,59.6,30.16,NNE,18,0.0,1.0,52,0.00,,OVC OVC///CB,0.00,WUHU216DAVISVP2,2013-06-21 00:21:00,
2013-06-20 20:26:00,78.2,58.9,30.17,NNE,18,0.0,1.0,51,0.00,,OVC OVC///CB,0.00,WUHU216DAVISVP2,2013-06-21 00:26:00,
2013-06-20 20:31:00,77.0,59.5,30.17,North,10,1.0,2.0,54,0.00,,OVC OVC///CB,0.00,WUHU216DAVISVP2,2013-06-21 00:31:00,
2013-06-20 20:36:00,75.6,59.7,30.16,North,10,0.0,2.0,57,0.00,,OVC OVC///CB,0.00,WUHU216DAVISVP2,2013-06-21 00:36:00,
2013-06-20 20:41:00,74.5,59.1,30.16,North,10,0.0,2.0,58,0.00,,OVC OVC///CB,0.00,WUHU216DAVISVP2,2013-06-21 00:41:00,
2013-06-20 20:46:00,73.8,59.4,30.17,North,11,0.0,2.0,60,0.00,,OVC OVC///CB,0.00,WUHU216DAVISVP2,2013-06-21 00:46:00,
2013-06-20 20:51:00,73.3,59.0,30.17,North,10,0.0,1.0,60,0.00,,OVC OVC///CB,0.00,WUHU216DAVISVP2,2013-06-21 00:51:00,
2013-06-20 20:56:00,73.0,59.6,30.17,North,10,0.0,1.0,62,0.00,,OVC OVC///CB,0.00,WUHU216DAVISVP2,2013-06-21 00:56:00,
2013-06-20 21:01:00,72.5,59.6,30.17,North,10,0.0,0.0,63,0.00,,OVC OVC///CB,0.00,WUHU216DAVISVP2,2013-06-21 01:01:00,
2013-06-20 21:06:00,71.9,59.4,30.17,North,10,0.0,0.0,64,0.00,,OVC OVC///CB,0.00,WUHU216DAVISVP2,2013-06-21 01:06:00,
2013-06-20 21:11:00,71.4,59.4,30.17,North,10,0.0,0.0,65,0.00,,OVC OVC///CB,0.00,WUHU216DAVISVP2,2013-06-21 01:11:00,
2013-06-20 21:16:00,70.8,58.8,30.17,North,10,0.0,0.0,65,0.00,,OVC OVC///CB,0.00,WUHU216DAVISVP2,2013-06-21 01:16:00,
2013-06-20 21:21:00,70.3,59.2,30.17,North,10,0.0,0.0,67,0.00,,OVC OVC///CB,0.00,WUHU216DAVISVP2,2013-06-21 01:21:00,
2013-06-20 21:26:00,69.8,58.7,30.17,North,10,0.0,0.0,67,0.00,,OVC OVC///CB,0.00,WUHU216DAVISVP2,2013-06-21 01:26:00,
2013-06-20 21:31:00,69.7,58.2,30.17,North,11,0.0,0.0,66,0.00,,OVC OVC///CB,0.00,WUHU216DAVISVP2,2013-06-21 01:31:00,
2013-06-20 21:36:00,69.4,58.7,30.17,North,11,0.0,0.0,68,0.00,,OVC OVC///CB,0.00,WUHU216DAVISVP2,2013-06-21 01:36:00,
2013-06-20 21:41:00,69.0,57.9,30.17,North,11,0.0,0.0,67,0.00,,OVC OVC///CB,0.00,WUHU216DAVISVP2,2013-06-21 01:41:00,
2013-06-20 21:46:00,68.6,58.0,30.17,North,11,0.0,0.0,68,0.00,,OVC OVC///CB,0.00,WUHU216DAVISVP2,2013-06-21 01:46:00,
2013-06-20 21:51:00,68.3,58.1,30.17,North,11,0.0,0.0,69,0.00,,OVC OVC///CB,0.00,WUHU216DAVISVP2,2013-06-21 01:51:00,
2013-06-20 21:56:00,68.4,58.6,30.17,NNE,12,0.0,0.0,70,0.00,,OVC OVC///CB,0.00,WUHU216DAVISVP2,2013-06-21 01:56:00,
2013-06-20 22:01:00,68.5,58.3,30.17,North,11,0.0,0.0,69,0.00,,OVC OVC///CB,0.00,WUHU216DAVISVP2,2013-06-21 02:01:00,
2013-06-20 22:06:00,68.3,58.1,30.17,North,11,0.0,0.0,69,0.00,,OVC OVC///CB,0.00,WUHU216DAVISVP2,2013-06-21 02:06:00,
2013-06-20 22:11:00,68.0,58.2,30.17,North,11,0.0,0.0,70,0.00,,OVC OVC///CB,0.00,WUHU216DAVISVP2,2013-06-21 02:11:00,
2013-06-20 22:16:00,67.9,58.1,30.18,North,11,0.0,0.0,70,0.00,,OVC OVC///CB,0.00,WUHU216DAVISVP2,2013-06-21 02:16:00,
2013-06-20 22:21:00,67.6,58.2,30.18,North,11,0.0,0.0,71,0.00,,OVC OVC///CB,0.00,WUHU216DAVISVP2,2013-06-21 02:21:00,
2013-06-20 22:26:00,67.2,58.5,30.18,North,11,0.0,0.0,73,0.00,,OVC OVC///CB,0.00,WUHU216DAVISVP2,2013-06-21 02:26:00,
2013-06-20 22:31:00,66.8,58.5,30.18,NNE,12,0.0,0.0,74,0.00,,OVC OVC///CB,0.00,WUHU216DAVISVP2,2013-06-21 02:31:00,
2013-06-20 22:36:00,66.6,58.3,30.18,NNE,12,0.0,0.0,74,0.00,,OVC OVC///CB,0.00,WUHU216DAVISVP2,2013-06-21 02:36:00,
2013-06-20 22:41:00,66.2,58.7,30.18,NNE,12,0.0,0.0,76,0.00,,OVC OVC///CB,0.00,WUHU216DAVISVP2,2013-06-21 02:41:00,
2013-06-20 22:46:00,65.9,58.7,30.18,North,11,0.0,0.0,77,0.00,,OVC OVC///CB,0.00,WUHU216DAVISVP2,2013-06-21 02:46:00,
2013-06-20 22:51:00,65.7,58.5,30.18,North,11,0.0,0.0,77,0.00,,OVC OVC///CB,0.00,WUHU216DAVISVP2,2013-06-21 02:51:00,
2013-06-20 22:56:00,65.5,58.7,30.18,NNE,12,0.0,0.0,78,0.00,,OVC OVC///CB,0.00,WUHU216DAVISVP2,2013-06-21 02:56:00,
2013-06-20 23:01:00,65.2,58.7,30.18,NNE,12,0.0,0.0,79,0.00,,OVC OVC///CB,0.00,WUHU216DAVISVP2,2013-06-21 03:01:00,
2013-06-20 23:06:00,64.7,58.6,30.19,NNE,12,0.0,0.0,80,0.00,,OVC OVC///CB,0.00,WUHU216DAVISVP2,2013-06-21 03:06:00,
2013-06-20 23:11:00,64.3,58.2,30.19,North,11,0.0,0.0,80,0.00,,OVC OVC///CB,0.00,WUHU216DAVISVP2,2013-06-21 03:11:00,
2013-06-20 23:16:00,64.2,58.4,30.19,NNE,12,0.0,0.0,81,0.00,,OVC OVC///CB,0.00,WUHU216DAVISVP2,2013-06-21 03:16:00,
2013-06-20 23:21:00,64.2,58.4,30.19,North,11,0.0,0.0,81,0.00,,OVC OVC///CB,0.00,WUHU216DAVISVP2,2013-06-21 03:21:00,
2013-06-20 23:26:00,64.3,58.5,30.19,North,11,0.0,0.0,81,0.00,,OVC OVC///CB,0.00,WUHU216DAVISVP2,2013-06-21 03:26:00,
2013-06-20 23:31:00,64.2,58.4,30.19,North,11,0.0,0.0,81,0.00,,OVC OVC///CB,0.00,WUHU216DAVISVP2,2013-06-21 03:31:00,
2013-06-20 23:36:00,64.0,58.6,30.19,North,11,0.0,0.0,82,0.00,,OVC OVC///CB,0.00,WUHU216DAVISVP2,2013-06-21 03:36:00,
2013-06-20 23:41:00,63.8,58.4,30.19,NNE,12,0.0,0.0,82,0.00,,OVC OVC///CB,0.00,WUHU216DAVISVP2,2013-06-21 03:41:00,
2013-06-20 23:46:00,63.6,58.2,30.20,North,11,0.0,0.0,82,0.00,,OVC OVC///CB,0.00,WUHU216DAVISVP2,2013-06-21 03:46:00,
2013-06-20 23:51:00,63.3,57.9,30.20,North,11,0.0,0.0,82,0.00,,OVC OVC///CB,0.00,WUHU216DAVISVP2,2013-06-21 03:51:00,
2013-06-20 23:56:00,63.3,57.9,30.20,North,11,0.0,0.0,82,0.00,,OVC OVC///CB,0.00,WUHU216DAVISVP2,2013-06-21 03:56:00,